Location: Amsterdam
(42.9386°N, 74.1886°W)
Time: 00:59:32
(UTC-04:00)

Envisat - Visible Passes

Search period start: 18 October 2018 00:00
Search period end: 28 October 2018 00:00
Orbit: 764 x 766 km, 98.2° (Epoch: 17 October)

Date Brightness Start Highest point End Pass type
(mag) Time Alt. Az. Time Alt. Az. Time Alt. Az.
18 Oct 4.0 18:52:12 10° ESE 18:56:21 26° ENE 19:00:30 10° N visible
18 Oct 4.2 20:30:25 10° SSW 20:35:09 40° W 20:39:57 10° NNW visible
19 Oct 2.9 19:53:15 10° SSE 19:58:20 88° WSW 20:03:27 10° NNW visible
19 Oct 6.1 21:37:37 10° W 21:38:04 10° W 21:38:31 10° W visible
20 Oct 3.3 19:16:56 10° SE 19:21:42 43° ENE 19:26:30 10° N visible
20 Oct 5.1 20:56:53 10° SW 21:00:54 23° W 21:04:55 10° NW visible
21 Oct 4.2 18:41:31 10° ESE 18:45:16 21° ENE 18:49:03 10° NNE visible
21 Oct 3.8 20:19:01 10° S 20:23:56 50° W 20:28:53 10° NNW visible
22 Oct 2.9 19:42:06 10° SSE 19:47:10 75° ENE 19:52:15 10° N visible
22 Oct 5.8 21:24:21 10° WSW 21:26:44 13° W 21:29:09 10° WNW visible
23 Oct 3.6 19:06:02 10° SE 19:10:35 35° ENE 19:15:10 10° N visible
23 Oct 4.8 20:45:14 10° SSW 20:49:37 29° W 20:54:03 10° NW visible
24 Oct 4.4 18:30:58 10° ESE 18:34:14 17° ENE 18:37:29 10° NNE visible
24 Oct 3.3 20:07:41 10° S 20:12:43 64° W 20:17:47 10° NNW visible
25 Oct 3.0 19:31:02 10° SSE 19:36:00 59° ENE 19:41:01 10° N visible
25 Oct 5.6 21:12:10 10° SW 21:15:25 17° W 21:18:41 10° NW visible
26 Oct 3.8 18:55:13 10° SE 18:59:30 28° ENE 19:03:47 10° N visible
26 Oct 4.4 20:33:42 10° SSW 20:38:22 36° W 20:43:04 10° NNW visible
27 Oct 4.6 18:20:36 10° E 18:23:11 14° ENE 18:25:46 10° NNE visible
27 Oct 3.0 19:56:27 10° S 20:01:31 81° WSW 20:06:38 10° NNW visible
